SCP
1 1 0 0 0 0 0 0 0 0 0 0 0 0 0 0 0 0 0 0 0 0 0 0 0 0 0 0 0 0 0 0 0 0 1 1 1 0 0 0 0 0 0
1 1 0 0 0 0 0 0 0 0 0 0 0 0 0 0 0 0 0 0 0 0 0 0 0 0 0 0 0 0 0 0 0 0 1 1 0 0 0 0 0 0 0
1 1 0 0 0 0 0 0 0 0 0 0 0 0 0 0 0 0 0 0 0 0 0 0 0 0 0 0 0 0 0 0 0 0 0 0 0 0 0 0 0 0 0
1 1 1 1 1 1 1 1 0 0 0 0 0 0 0 0 0 0 0 0 0 0 0 0 0 0 0 0 0 0 0 0 0 0 0 0 0 0 0 0 0 0 0
1 1 1 1 1 1 1 1 0 0 0 0 0 0 0 0 0 0 0 0 0 0 0 0 0 0 0 0 0 1 1 0 0 0 0 0 0 0 0 0 0 0 0
2 1 1 1 1 1 1 1 1 0 0 0 0 0 0 0 0 0 0 0 0 0 0 0 0 0 0 0 0 1 1 0 0 0 0 0 0 0 0 0 0 0 0
2 1 1 1 1 1 1 1 1 1 0 0 0 0 0 0 0 0 0 0 0 0 0 0 0 0 0 0 0 0 0 0 0 0 0 0 0 0 0 0 0 0 0
2 2 1 1 1 1 1 1 1 1 1 1 0 0 0 0 0 0 0 0 0 0 0 0 0 0 0 0 0 0 0 0 0 0 0 0 0 0 0 0 0 0 0
3 2 1 1 1 1 1 1 1 1 1 1 1 0 0 0 0 0 0 0 0 0 0 0 0 0 0 0 0 0 0 0 0 0 0 0 0 0 0 0 0 0 0
3 3 2 1 1 1 1 1 1 1 1 1 0 0 0 0 0 0 0 0 0 0 0 0 0 0 0 0 0 1 0 0 1 0 0 0 0 0 0 0 0 0 0
3 3 2 2 1 1 1 1 1 1 1 0 0 0 0 0 0 0 0 0 0 0 0 0 0 0 0 0 0 1 0 1 1 1 1 0 0 0 0 0 0 0 0
4 3 3 2 2 1 1 1 1 1 1 0 0 0 0 0 0 0 0 0 0 0 0 0 0 0 0 0 0 0 0 0 1 1 1 0 0 0 0 0 0 0 0
5 4 4 4 3 2 2 2 1 1 1 1 1 0 1 1 0 0 0 0 0 0 0 0 0 0 0 0 0 0 0 0 1 1 1 0 0 0 0 0 0 0 0
6 6 6 6 4 3 3 2 2 2 1 2 1 1 1 1 1 1 0 0 0 0 0 0 0 0 0 0 0 0 0 0 0 0 0 0 0 0 0 0 0 0 0
9 9 8 8 6 5 4 3 3 2 2 2 2 1 1 1 1 1 1 0 0 0 0 0 0 0 0 0 0 0 0 0 1 0 0 0 0 0 0 0 0 0 0
11 10 9 9 8 6 5 4 3 3 2 2 2 2 2 2 1 1 1 1 0 0 0 0 0 0 0 0 0 0 0 0 1 1 0 0 0 0 0 0 0 0 0
11 9 8 8 8 7 6 5 4 3 2 2 2 2 2 2 2 1 1 1 1 1 1 1 0 0 0 0 0 0 0 0 1 0 0 0 0 0 0 0 0 0 0
8 7 6 7 7 7 6 5 3 2 2 2 2 2 3 2 2 1 1 1 1 1 1 1 1 1 0 0 0 0 0 1 0 0 0 0 0 0 0 0 0 0 0
6 6 6 6 6 6 5 4 3 2 2 2 2 2 2 2 2 2 1 1 1 1 1 1 1 1 1 1 0 0 1 1 0 0 0 0 0 0 0 0 0 0 0
6 6 5 5 5 5 4 3 2 2 2 2 2 2 2 2 2 2 1 1 1 1 1 1 1 1 1 1 1 0 1 1 0 0 0 1 1 0 0 0 0 0 0
6 6 5 5 5 4 4 3 3 2 2 2 2 2 2 2 2 2 2 1 1 1 1 1 1 1 1 1 1 1 0 0 0 0 1 1 0 1 1 1 1 0 0
6 6 5 5 5 5 4 3 3 2 2 2 2 2 2 3 2 2 2 2 2 1 1 1 1 1 1 1 1 1 0 0 0 0 1 0 0 1 1 1 1 1 0
5 5 5 5 5 4 4 4 3 3 2 2 2 2 3 3 3 3 2 2 2 2 1 1 2 1 1 1 1 1 0 0 0 0 0 0 1 1 1 1 1 1 1
4 4 4 4 4 4 4 4 4 3 2 2 2 2 3 2 2 2 2 2 2 2 2 2 2 2 1 1 1 1 1 0 0 0 0 0 0 0 1 1 1 1 1
3 3 4 4 4 5 5 5 4 4 3 3 2 2 2 2 2 2 2 2 2 2 2 2 2 2 2 1 2 2 1 1 0 0 0 0 0 0 1 1 1 1 1
3 3 3 4 4 5 5 5 5 4 3 3 2 2 2 2 2 2 2 2 2 2 2 3 2 2 2 2 2 2 1 1 0 0 0 0 0 0 1 1 1 1 1
Wind_Speed
17 16 15 14 14 14 14 14 14 14 14 13 13 13 13 14 14 14 14 14 14 14 14 14 13 14 14 14 14 14 15 15 16 17 17 16 15 13 13 14 16 13 16
20 17 16 15 14 14 14 14 14 14 13 13 13 13 13 13 13 13 13 13 14 14 14 14 14 14 14 13 13 13 13 13 15 16 16 15 14 13 13 14 16 11 16
20 17 16 14 14 14 14 14 14 14 14 13 13 12 12 12 13 13 13 14 14 14 14 14 14 13 13 13 12 11 12 12 12 13 14 10 11 14 15 17 17 16 15
20 16 15 16 15 15 15 15 14 14 13 13 12 12 12 12 12 13 14 14 14 14 14 14 14 13 13 12 11 9 9 9 9 8 7 8 9 14 16 16 16 15 15
18 16 16 16 16 15 15 14 14 13 13 13 12 12 12 12 12 13 13 14 14 14 14 14 14 13 12 10 9 7 6 6 6 7 9 9 8 13 15 15 15 15 14
19 17 17 17 16 15 15 14 14 13 13 12 12 12 12 12 12 12 13 13 14 14 14 13 13 12 11 9 7 5 3 2 2 8 9 9 8 12 14 14 14 14 13
19 18 17 17 16 15 14 14 13 13 13 12 12 12 12 12 12 12 13 13 13 13 13 13 12 11 10 8 5 3 3 4 2 10 9 9 9 12 14 14 14 13 13
20 18 16 17 16 15 14 14 13 13 12 12 12 11 12 12 12 12 12 12 12 12 12 12 11 10 9 6 3 2 3 5 7 12 10 9 10 12 13 13 13 13 12
20 18 15 15 14 15 14 14 13 13 12 12 12 12 12 12 12 12 11 11 12 11 11 11 10 9 8 5 2 1 4 5 3 8 11 8 10 12 12 12 12 12 12
18 17 15 15 13 12 12 13 13 13 12 12 12 11 12 12 12 12 11 10 11 10 10 10 9 8 6 4 2 2 4 4 3 10 8 9 11 12 12 12 12 11 11
15 15 15 15 14 12 12 13 12 12 11 11 10 11 10 8 9 8 12 11 10 9 9 8 8 7 6 4 4 3 3 1 6 8 7 12 12 12 12 11 11 10 11
14 14 13 13 12 11 11 10 8 8 8 7 7 8 5 3 5 9 11 11 10 9 8 8 7 7 5 4 5 4 2 2 5 7 8 13 12 11 11 10 10 10 10
13 11 12 11 9 9 8 8 6 5 6 6 7 6 4 4 5 7 5 6 6 7 6 6 6 5 4 2 2 2 1 4 4 7 8 12 11 11 10 10 10 9 9
11 11 11 11 8 7 8 6 6 5 5 4 5 6 4 2 3 4 3 5 4 3 3 4 3 4 3 3 3 2 2 3 5 6 7 12 10 10 10 9 9 9 9
10 9 10 9 7 6 5 4 5 5 5 5 4 3 4 3 3 3 2 2 3 3 3 2 1 3 2 2 2 4 3 4 7 7 6 10 10 9 9 9 9 9 9
11 9 10 10 8 6 5 3 4 5 4 5 5 5 4 3 4 3 3 1 1 2 2 2 2 2 1 1 2 3 3 4 6 7 7 7 10 9 9 9 9 8 9
11 10 10 10 9 8 7 5 4 5 6 4 4 5 4 3 5 3 2 2 1 2 3 2 2 2 2 2 2 3 3 3 5 6 7 6 6 8 9 9 9 8 9
11 10 10 10 10 9 7 4 3 3 4 4 4 5 4 4 5 3 3 2 2 2 2 2 1 1 1 2 2 1 3 3 4 5 6 6 6 6 8 9 9 8 9
10 10 9 8 10 9 7 5 3 2 3 3 4 5 5 5 5 3 2 2 2 2 2 2 2 1 2 2 3 2 2 2 3 4 5 6 7 7 6 9 10 9 10
10 9 9 8 9 8 6 4 3 3 3 3 3 4 5 4 4 3 3 3 2 1 1 2 3 1 1 1 1 3 2 3 2 2 4 4 5 7 8 8 7 7 10
10 10 9 9 9 8 6 6 5 4 4 3 4 5 6 5 5 3 3 4 2 1 2 3 2 2 1 1 1 1 1 3 3 3 3 3 4 5 7 8 7 5 6
10 10 10 9 10 9 6 5 4 4 4 4 3 5 6 5 5 5 3 3 3 2 2 2 2 1 2 2 1 1 1 1 2 4 3 4 4 4 5 8 6 6 6
10 10 9 9 9 9 8 5 4 4 3 4 4 4 5 6 5 4 5 4 4 4 3 3 3 3 2 1 1 1 1 2 1 1 3 3 3 3 3 4 6 6 6
10 10 9 9 8 8 8 7 8 6 5 5 5 4 5 5 6 5 5 4 3 3 4 5 4 3 2 2 1 1 1 2 1 0 2 2 4 4 3 4 5 5 5
10 9 8 8 8 8 8 7 7 6 5 3 4 5 6 5 6 6 6 5 5 3 4 4 3 2 2 2 2 2 2 2 2 2 2 2 3 3 4 3 3 4 5
9 9 8 8 8 8 8 8 7 7 6 6 6 6 5 4 5 6 6 5 5 3 3 3 3 4 2 2 1 1 1 2 2 2 2 3 3 3 4 4 4 3 4
Wind_Direction
120 124 125 124 125 125 124 121 116 110 105 101 97 94 92 89 88 90 92 94 95 96 96 95 93 91 89 88 88 88 90 95 98 97 95 92 91 91 97 103 99 94 99
121 124 125 125 126 126 124 121 118 113 109 104 101 99 96 93 93 94 96 97 97 97 98 97 95 95 93 93 94 96 98 104 108 107 102 92 89 89 92 92 92 100 102
121 125 127 124 125 125 123 121 119 116 113 109 105 103 100 98 98 97 98 99 98 98 98 98 97 97 96 97 100 103 107 112 119 123 113 100 93 90 92 94 97 99 99
125 132 126 126 125 125 124 123 121 119 116 112 109 106 104 101 100 99 99 99 99 99 99 100 100 100 100 100 103 108 113 119 126 132 107 101 96 96 97 98 100 100 101
125 122 125 129 126 125 124 124 122 121 118 116 112 109 106 104 102 101 101 101 101 101 101 100 100 102 102 102 105 108 111 120 133 116 93 89 90 102 100 101 102 103 103
125 125 129 131 129 127 127 126 125 124 121 118 114 111 108 107 105 104 103 102 102 102 102 101 102 102 102 104 106 104 96 107 142 110 107 103 100 105 104 103 103 104 104
130 127 133 133 132 131 130 130 127 125 123 121 118 114 112 110 108 106 105 105 105 104 104 103 104 104 104 105 105 86 39 336 107 97 93 94 102 108 107 106 107 107 107
130 130 133 136 136 135 135 133 131 129 127 126 122 118 115 114 112 111 110 109 108 107 106 106 106 107 108 108 103 53 356 338 98 103 98 98 108 110 111 110 110 111 111
131 131 141 142 140 140 139 137 135 132 131 129 126 123 121 120 118 116 114 113 113 113 112 111 111 112 115 120 122 328 328 352 69 114 109 107 113 114 114 113 113 114 114
134 139 146 147 145 148 145 142 139 137 136 134 134 135 132 131 129 128 124 120 120 120 120 121 122 124 132 146 186 277 326 327 109 107 106 115 119 119 118 117 117 116 117
139 143 152 148 152 154 151 145 146 145 144 144 147 149 151 152 143 147 123 130 130 131 133 136 138 142 153 177 214 261 296 262 96 98 103 120 125 124 124 124 122 121 121
144 151 150 148 155 157 148 144 154 156 155 167 158 166 183 152 140 130 131 141 145 147 151 159 162 171 190 185 200 224 250 122 104 107 116 128 128 129 129 129 128 125 124
149 151 146 147 154 155 138 156 162 154 161 173 163 173 167 145 141 133 148 150 160 169 179 165 184 206 205 201 178 194 174 111 105 108 126 131 132 134 135 135 135 133 132
153 152 147 147 155 149 147 159 156 150 160 162 162 178 156 159 145 146 157 163 172 184 173 174 194 193 188 161 139 121 101 101 105 109 133 137 138 140 141 142 143 142 141
156 152 141 143 146 142 140 159 157 147 163 157 159 177 157 161 147 141 140 161 178 163 160 171 169 140 144 146 141 120 112 104 118 123 131 146 147 148 150 151 152 153 152
160 154 147 150 154 148 144 158 142 153 156 158 161 168 177 154 133 132 148 173 164 136 128 138 140 130 119 93 92 100 102 105 109 125 138 151 157 159 159 160 164 165 164
160 156 155 157 159 157 156 169 165 170 167 157 148 151 171 149 138 151 154 182 153 123 118 128 133 134 153 147 122 111 106 107 117 132 147 155 163 168 169 170 172 174 176
162 161 162 169 163 162 159 175 177 184 152 144 147 148 168 149 151 162 160 173 146 133 150 138 167 163 142 127 120 121 114 126 139 151 157 166 163 168 178 182 180 182 187
162 161 168 167 160 163 162 172 180 165 141 141 146 152 164 166 164 174 145 128 162 153 160 179 144 148 138 145 155 158 145 153 158 176 164 169 166 165 168 180 184 188 196
158 159 167 165 158 156 158 165 175 167 154 148 149 157 158 170 174 181 153 161 190 166 139 95 115 97 131 191 189 147 154 158 181 170 182 172 171 175 168 168 178 195 203
159 162 169 170 162 159 163 173 180 180 171 166 169 166 167 178 179 201 154 157 180 168 156 151 151 166 205 184 132 149 180 182 182 181 195 174 181 172 159 164 181 184 192
166 168 172 173 169 171 171 171 180 178 176 174 174 169 178 177 181 191 168 176 171 165 153 137 124 151 228 181 163 157 191 223 225 199 181 192 183 171 174 180 180 177 183
170 173 176 174 172 174 169 171 180 168 170 171 175 178 183 182 191 190 173 191 173 178 170 182 178 194 222 195 198 181 169 197 221 230 200 187 171 173 196 181 182 182 190
170 173 169 168 170 175 173 181 180 182 186 184 176 178 179 189 188 187 183 184 188 194 163 194 192 192 202 216 211 208 191 139 154 246 262 191 183 186 210 202 186 185 193
167 166 165 165 171 175 182 188 185 191 189 181 176 177 180 189 195 193 186 187 193 192 178 196 163 199 214 223 218 209 202 184 212 189 219 214 201 192 196 204 191 192 190
163 162 163 165 172 176 183 188 190 195 191 187 190 185 188 187 193 192 188 185 190 190 177 174 169 199 232 264 277 266 186 198 233 224 204 213 203 200 192 190 188 193 191